TimeMST,TemperatureF,Dew PointF,Humidity,Sea Level PressureIn,VisibilityMPH,Wind Direction,Wind SpeedMPH,Gust SpeedMPH,PrecipitationIn,Events,Conditions,WindDirDegrees,DateUTC
12:55 AM,6.1,1.9,83,30.42,10.0,ESE,11.5,-,N/A,,Clear,110,2013-01-24 07:55:00
1:55 AM,6.1,1.9,83,30.38,10.0,ESE,16.1,20.7,N/A,,Clear,110,2013-01-24 08:55:00
2:55 AM,5.0,1.0,84,30.33,10.0,ESE,19.6,26.5,N/A,,Clear,110,2013-01-24 09:55:00
3:55 AM,5.0,1.9,87,30.28,10.0,ESE,15.0,21.9,N/A,,Clear,110,2013-01-24 10:55:00
4:55 AM,6.1,1.9,83,30.26,10.0,East,12.7,-,N/A,,Clear,90,2013-01-24 11:55:00
5:55 AM,9.0,3.9,80,30.22,10.0,East,16.1,-,N/A,,Clear,100,2013-01-24 12:55:00
6:55 AM,7.0,3.0,84,30.21,10.0,East,15.0,-,N/A,,Clear,90,2013-01-24 13:55:00
7:55 AM,8.1,3.9,83,30.17,10.0,East,15.0,-,N/A,,Clear,90,2013-01-24 14:55:00
8:55 AM,12.0,6.1,77,30.15,10.0,East,15.0,-,N/A,,Clear,100,2013-01-24 15:55:00
9:55 AM,17.1,10.0,74,30.12,10.0,East,12.7,-,N/A,,Clear,100,2013-01-24 16:55:00
10:55 AM,21.9,12.9,68,30.09,10.0,East,10.4,-,N/A,,Clear,90,2013-01-24 17:55:00
11:55 AM,27.0,17.1,66,30.04,10.0,East,9.2,-,N/A,,Clear,100,2013-01-24 18:55:00
12:55 PM,30.9,19.0,61,30.01,10.0,NE,5.8,-,N/A,,Clear,40,2013-01-24 19:55:00
1:55 PM,33.1,19.0,56,29.99,10.0,Calm,Calm,-,N/A,,Clear,0,2013-01-24 20:55:00
2:55 PM,30.9,19.0,61,30.02,10.0,North,4.6,-,N/A,,Clear,360,2013-01-24 21:55:00
3:55 PM,28.9,19.0,67,30.06,10.0,NNW,4.6,-,N/A,,Clear,330,2013-01-24 22:55:00
4:55 PM,26.1,19.0,75,30.07,10.0,WNW,8.1,-,N/A,,Clear,300,2013-01-24 23:55:00
5:55 PM,25.0,19.0,78,30.10,10.0,NW,8.1,-,N/A,,Clear,310,2013-01-25 00:55:00
6:55 PM,25.0,19.0,78,30.12,10.0,West,5.8,-,N/A,,Mostly Cloudy,280,2013-01-25 01:55:00
7:55 PM,25.0,18.0,75,30.11,10.0,WSW,10.4,-,N/A,,Overcast,250,2013-01-25 02:55:00
8:55 PM,28.0,21.0,75,30.12,10.0,West,11.5,-,N/A,,Overcast,260,2013-01-25 03:55:00
9:55 PM,30.0,21.9,72,30.13,10.0,West,10.4,-,N/A,,Scattered Clouds,270,2013-01-25 04:55:00
10:55 PM,27.0,19.9,75,30.14,10.0,West,10.4,-,N/A,,Clear,260,2013-01-25 05:55:00
11:55 PM,25.0,19.0,78,30.14,10.0,WSW,9.2,-,N/A,,Clear,250,2013-01-25 06:55:00